Theta_e
300 300 300 301 301 301 301 302 302 302 302 302 303 303 304 305 305 305 306 305 305 306 307 309 309 309 311 313 313 314 306 306 306 306 305 306 305 308 307 308 308 309 309 310 310
300 300 300 300 300 301 301 301 301 302 302 302 304 303 304 306 305 305 305 304 305 305 309 309 309 309 309 310 311 309 305 306 304 305 305 307 307 308 307 307 308 308 309 309 309
299 300 300 300 300 301 301 301 301 302 302 302 304 303 303 306 306 305 305 304 305 305 308 309 309 308 307 308 307 305 303 304 306 307 307 307 307 308 306 306 307 308 309 308 307
299 299 299 300 300 300 300 300 301 302 303 302 303 305 305 306 308 305 304 305 305 306 307 309 309 308 304 304 306 304 305 305 306 307 307 306 307 307 307 306 308 308 308 307 307
299 299 299 300 300 300 300 300 300 303 304 304 303 305 307 304 305 304 305 305 305 308 309 308 308 307 303 305 305 303 305 306 306 307 307 308 307 307 307 307 307 307 306 307 307
299 299 299 299 300 300 300 300 300 301 304 304 305 305 309 304 305 305 305 305 305 308 309 308 308 308 307 305 304 306 306 306 306 307 307 307 307 307 307 307 307 306 306 306 307
299 299 299 299 299 299 299 299 300 301 301 303 304 307 309 307 305 305 305 305 305 307 307 308 308 308 306 305 306 307 304 305 306 307 306 308 306 306 306 307 306 306 306 305 306
299 299 299 299 299 299 299 300 301 302 302 302 305 306 305 304 305 305 305 305 305 306 307 307 307 307 307 307 306 305 304 306 306 307 308 308 307 306 306 306 305 305 305 304 305
299 299 299 299 299 298 299 300 301 303 303 302 306 308 305 304 304 304 304 305 307 307 306 307 308 307 307 303 303 303 305 307 307 306 307 307 307 306 305 305 305 305 304 303 304
299 299 298 298 298 298 299 301 302 303 303 304 306 306 305 306 304 304 304 305 307 308 309 310 309 303 302 303 306 306 306 306 307 307 306 307 306 304 304 305 304 304 303 303 304
301 301 299 298 298 298 298 300 305 308 304 307 308 307 306 305 305 304 305 307 309 309 307 307 303 303 305 306 307 306 305 306 306 306 306 306 307 304 304 304 303 303 302 303 303
299 300 299 298 297 298 298 300 301 306 307 305 306 306 305 307 307 304 307 308 308 307 307 302 305 305 306 307 306 307 307 307 306 306 306 306 306 304 304 303 303 302 302 302 302
299 299 298 297 297 297 298 298 299 304 307 306 306 306 305 306 305 305 308 308 307 307 306 302 305 306 307 306 306 306 307 307 305 306 306 306 303 304 303 303 303 302 302 302 302
301 303 298 297 297 297 298 298 301 301 303 303 305 305 306 306 304 305 307 308 307 305 305 304 305 306 306 306 307 308 306 307 308 306 308 304 300 305 304 302 302 301 300 300 302
305 302 299 297 299 297 299 299 301 304 311 304 303 304 306 306 305 305 306 307 306 306 303 305 306 307 308 307 307 307 306 307 307 307 304 306 302 304 303 302 301 301 300 299 301
308 304 299 297 297 297 299 301 302 309 316 302 303 305 306 306 305 305 305 306 306 303 303 304 306 306 306 306 306 306 307 305 305 304 303 307 302 299 299 300 302 300 299 299 300
308 304 298 297 297 300 301 302 304 304 302 303 303 305 306 305 304 305 304 304 301 301 301 303 304 304 306 306 306 307 305 305 304 304 306 305 302 301 302 302 301 300 298 298 300
309 301 298 296 298 301 303 304 305 304 302 301 304 305 307 305 304 304 305 302 303 303 298 302 302 304 305 306 306 307 306 304 297 305 306 303 305 305 301 302 301 299 298 298 300
309 303 297 295 299 306 307 303 308 303 304 304 305 306 304 303 304 303 304 303 301 302 301 303 305 304 305 306 305 306 307 305 305 294 303 302 305 303 301 300 300 298 297 297 300
308 299 297 295 299 305 303 303 301 301 303 304 305 305 306 305 304 303 303 302 304 302 302 304 303 303 304 305 305 306 305 304 304 299 303 303 305 304 301 301 299 297 297 297 300
305 299 298 296 298 301 296 297 300 300 303 303 304 305 304 304 304 305 305 304 303 303 303 303 302 303 303 304 304 305 305 306 305 305 304 303 302 300 300 299 298 297 297 296 299
302 300 297 296 300 299 298 298 299 300 302 301 302 302 304 303 304 303 305 304 303 303 303 302 302 302 303 303 303 304 304 305 303 305 304 305 302 301 299 299 299 297 296 296 297
302 298 298 299 300 294 293 293 298 299 299 300 301 301 301 303 304 303 304 301 303 302 302 302 298 297 299 301 302 303 304 304 303 303 305 304 300 299 300 299 299 297 296 296 295
303 298 297 298 298 294 295 295 295 299 299 300 300 300 301 302 301 303 302 301 302 302 301 301 301 300 300 303 302 303 303 303 304 304 303 303 301 299 299 298 298 297 296 295 295
304 299 297 297 298 296 298 296 297 297 299 300 299 299 300 299 302 302 302 301 301 302 300 299 294 301 301 301 301 303 303 303 304 303 301 301 301 301 299 298 299 298 297 295 295
302 299 297 297 300 299 299 295 298 297 298 299 293 299 299 300 301 301 301 301 302 301 299 297 296 296 294 297 296 299 300 302 303 303 300 300 300 299 300 299 298 298 297 295 294
305 304 304 299 299 301 300 298 297 298 298 299 298 299 300 300 301 301 302 302 301 300 299 298 296 296 293 294 294 292 296 299 303 302 303 302 301 297 296 298 298 298 298 296 295
Wind_Speed
2 2 3 3 4 6 8 10 11 11 10 8 5 3 5 9 15 5 13 13 12 8 7 7 7 12 12 11 9 4 5 3 4 4 1 12 5 10 12 15 21 14 14 16 17
3 2 3 4 4 6 8 9 11 10 9 6 5 2 1 5 7 16 12 9 8 7 8 7 9 7 7 6 7 8 4 3 1 1 4 14 15 6 8 13 13 17 16 16 19
3 4 3 4 4 5 7 8 10 9 7 4 5 2 2 1 4 10 10 7 6 7 7 8 9 9 9 9 8 5 4 5 4 6 6 7 20 14 5 5 12 12 17 21 25
4 5 5 5 4 5 6 7 9 7 6 3 2 3 3 1 2 6 8 7 6 6 6 6 4 5 6 5 5 8 8 6 4 6 4 3 6 11 14 9 12 16 19 20 24
5 6 6 6 6 5 5 5 6 5 6 4 2 0 2 3 5 5 9 8 6 8 7 13 13 7 5 8 14 8 5 9 8 7 9 11 12 7 14 15 14 15 19 21 25
7 7 7 6 6 6 6 5 4 2 2 5 3 0 1 3 4 5 9 9 10 7 7 3 10 17 13 5 5 10 14 9 6 6 5 4 3 3 9 13 15 18 21 21 27
8 8 8 6 6 6 5 6 4 3 2 2 1 2 2 3 3 6 7 10 13 13 13 17 12 3 9 8 13 18 6 4 4 1 2 4 4 2 7 10 15 17 18 24 29
7 7 8 7 6 5 5 5 3 2 1 2 1 1 3 3 3 4 5 9 12 14 15 16 16 18 7 18 5 3 4 3 2 0 1 4 3 1 6 10 14 16 20 28 32
6 6 7 6 6 4 4 4 2 1 1 2 1 2 3 2 1 3 5 8 11 14 15 12 10 10 6 5 4 6 2 1 2 3 1 2 3 5 7 16 16 17 25 30 36
5 3 6 6 4 3 3 1 1 1 1 3 2 1 2 0 2 3 4 6 5 9 7 4 6 4 4 4 4 4 3 1 2 2 2 2 3 5 10 19 15 19 27 32 37
9 5 3 5 3 2 2 3 1 0 1 3 2 3 3 3 4 3 5 6 4 4 3 5 6 4 5 2 2 2 3 3 1 2 2 2 1 4 6 18 18 23 28 30 33
10 8 7 3 2 2 0 1 2 2 2 4 4 2 3 2 1 2 3 2 3 3 2 6 3 3 1 2 5 4 3 1 2 1 2 2 5 3 5 8 16 21 27 31 34
12 9 7 5 4 2 1 1 2 1 1 1 2 2 2 1 2 3 3 3 5 4 3 5 3 3 2 3 5 3 3 2 2 4 3 2 4 5 2 8 16 24 27 31 34
16 12 9 5 4 5 3 1 3 1 4 1 1 1 1 3 3 4 5 3 4 4 3 5 1 3 4 3 1 3 2 2 1 3 2 4 4 4 1 6 10 23 28 30 31
18 15 12 10 4 6 7 4 1 2 1 3 1 1 3 2 4 4 5 4 4 3 4 1 3 2 2 3 1 3 2 2 1 2 3 1 2 4 3 5 6 19 23 25 29
19 17 16 13 9 8 10 9 3 5 6 1 1 2 3 2 2 2 3 6 6 5 7 2 1 2 2 2 3 4 3 4 3 2 2 3 4 4 0 3 4 13 19 23 27
22 19 18 16 13 16 14 9 4 4 3 2 3 3 2 2 2 1 2 3 4 5 1 5 2 1 2 4 3 2 4 2 4 3 4 2 2 4 4 3 4 7 15 21 25
25 20 19 19 19 17 15 5 3 2 4 1 3 4 3 2 2 1 4 1 3 3 3 5 4 6 4 3 5 4 4 4 6 3 3 3 4 2 5 7 7 9 14 19 24
29 24 22 21 21 20 16 2 6 6 6 8 3 3 2 2 4 2 5 4 6 8 5 4 1 1 2 1 1 4 3 3 5 2 2 3 1 2 4 2 7 10 16 19 19
33 30 25 22 22 23 4 6 4 3 6 4 5 3 7 5 3 4 6 4 4 6 2 5 3 1 2 1 2 3 2 3 1 2 3 4 4 4 6 3 4 6 12 14 13
40 18 26 22 21 19 4 7 4 5 6 5 6 4 4 6 6 5 5 2 2 4 3 4 3 1 2 6 7 3 3 3 2 3 4 1 5 4 7 6 7 6 8 9 9
28 3 32 28 10 5 3 6 6 6 4 2 2 3 6 7 5 5 7 3 5 8 6 3 4 4 5 2 2 2 5 6 3 5 2 2 5 5 7 11 13 10 8 6 6
28 8 30 33 7 3 3 1 5 4 5 6 6 3 2 6 4 5 5 2 5 3 6 4 1 2 5 2 1 5 5 4 3 2 5 5 4 5 11 11 12 13 11 6 6
18 5 9 19 8 6 5 4 5 6 4 5 4 4 3 3 1 6 3 2 3 5 4 4 2 5 6 2 3 5 6 7 5 3 4 5 5 6 9 8 14 14 12 9 6
13 6 14 8 13 6 7 11 9 6 3 7 2 5 7 4 3 5 3 3 1 5 3 3 5 3 3 2 2 3 4 9 14 6 7 4 10 14 15 12 22 19 16 12 9
17 9 13 7 16 14 12 9 13 6 9 6 5 10 7 7 8 8 7 5 5 4 5 2 2 2 3 3 3 5 7 9 15 13 8 3 6 4 20 22 21 23 20 16 13
20 16 22 16 10 15 10 12 20 13 13 9 15 7 6 5 6 6 10 5 9 9 7 6 5 3 5 2 2 6 16 19 8 8 14 12 9 11 7 20 27 27 24 21 17
Wind_Direction
244 292 306 325 343 338 342 348 354 357 357 3 28 68 42 63 49 94 61 39 39 66 85 95 99 100 97 73 59 86 63 58 10 34 320 17 48 58 63 74 49 40 36 25 12
248 258 288 309 329 330 335 347 349 355 358 358 28 83 74 46 38 49 47 43 44 68 105 100 90 98 68 53 42 64 84 122 238 115 78 55 57 45 63 44 22 28 37 23 5
256 266 268 290 310 326 333 346 348 354 360 355 19 85 232 9 21 22 31 55 59 96 123 106 82 68 64 43 28 52 115 154 51 70 87 99 60 55 57 20 16 33 33 11 2
262 275 279 281 296 320 330 344 349 3 10 11 360 58 47 294 126 15 31 55 76 104 134 123 90 57 63 46 38 97 72 115 113 53 89 67 91 52 45 23 44 49 33 16 5
273 269 277 287 294 310 318 339 348 17 27 22 12 76 23 62 65 29 43 53 89 115 123 109 88 86 95 113 63 73 124 92 115 74 58 97 101 91 42 57 54 39 25 15 4
288 282 278 284 294 303 310 326 331 319 350 18 30 129 43 73 47 35 43 61 89 137 132 125 104 106 84 69 79 119 114 118 115 98 82 106 93 127 47 58 49 24 13 5 358
302 291 285 285 291 297 304 314 319 321 279 323 286 52 104 126 53 47 50 78 91 92 110 113 118 103 102 90 116 123 83 81 35 86 132 131 26 92 92 60 45 21 11 360 355
301 294 291 289 290 294 302 304 315 332 316 215 38 115 107 124 64 55 77 86 98 109 106 104 103 94 84 120 91 80 67 96 297 149 151 113 230 169 69 76 47 22 10 359 359
293 298 292 289 288 296 301 302 326 32 66 170 171 129 111 133 85 68 94 106 101 105 111 112 86 85 93 90 44 17 185 154 305 12 262 146 189 133 73 64 42 27 8 4 357
271 294 301 287 289 300 294 258 38 35 118 124 137 137 131 246 89 92 105 130 120 117 104 78 71 78 40 72 202 184 184 141 206 299 335 174 231 108 76 55 41 22 12 6 358
257 269 286 292 285 295 290 283 257 319 47 104 78 95 112 126 100 110 119 118 105 65 66 27 76 149 153 130 135 167 127 134 220 265 297 253 260 131 71 51 37 19 13 7 359
248 252 252 261 299 295 307 113 61 140 41 77 97 98 124 116 102 91 120 126 91 101 61 27 111 184 199 92 98 70 123 153 308 346 23 311 281 144 73 66 46 23 13 6 357
232 237 241 224 221 215 186 147 146 95 164 25 119 112 131 133 64 40 101 92 87 60 17 128 144 142 107 61 99 48 148 167 198 330 261 340 295 165 174 60 31 22 16 8 3
231 232 229 203 210 181 133 168 137 35 63 215 124 16 140 142 47 68 83 95 51 131 95 85 145 124 105 90 92 156 135 104 16 52 216 89 269 237 350 11 21 17 15 8 2
227 229 216 187 188 173 147 144 102 7 312 60 134 163 116 131 127 40 68 72 90 85 98 190 125 120 118 137 29 144 119 107 70 70 50 194 74 252 19 354 353 10 11 9 6
219 224 218 200 176 142 136 122 95 45 248 191 54 154 112 63 72 98 90 85 112 73 36 111 58 51 103 83 70 125 97 53 47 69 11 217 132 278 293 227 348 4 12 14 10
211 212 209 188 168 142 133 125 68 173 351 205 162 163 120 131 79 110 99 103 145 93 6 358 345 29 141 96 25 88 85 6 353 2 228 132 40 261 143 110 83 8 17 21 17
201 196 203 188 164 151 145 78 174 217 209 203 122 122 148 151 350 85 109 152 219 106 114 150 287 178 173 206 177 182 175 163 206 201 270 319 243 250 142 109 87 53 38 33 25
198 190 197 185 173 163 147 162 212 200 157 148 61 115 174 195 146 108 197 205 204 181 157 136 274 47 108 71 149 180 195 157 107 29 44 214 80 254 145 118 72 49 41 37 32
188 184 185 181 178 168 117 241 219 198 136 144 173 163 169 190 156 173 186 218 179 185 162 206 89 260 161 116 261 193 162 83 3 134 262 269 252 219 190 174 85 53 49 43 38
184 164 181 177 175 176 183 229 218 184 170 158 176 155 164 172 183 185 186 293 162 153 113 151 108 163 84 204 182 172 209 213 127 166 171 252 255 198 165 167 144 108 69 53 48
164 138 166 172 165 169 207 198 180 165 172 165 155 137 165 153 161 194 196 191 182 157 168 172 119 170 197 253 256 251 211 182 156 201 217 142 269 144 152 163 143 137 108 80 77
153 116 166 174 185 212 260 263 171 157 187 181 185 195 157 164 156 179 175 150 182 143 159 163 238 59 343 342 305 219 193 195 124 82 198 148 245 175 149 158 156 150 128 124 112
145 134 162 191 225 165 156 190 191 200 175 176 156 128 116 129 157 168 147 134 132 132 124 135 179 194 196 173 126 203 195 183 165 158 179 223 161 190 184 179 169 164 145 148 143
163 173 172 176 214 191 183 168 166 175 204 186 327 206 166 133 115 169 137 119 86 145 126 145 201 213 227 192 241 240 207 191 209 192 185 215 194 196 189 187 183 171 156 160 162
164 152 163 181 165 162 187 205 187 164 156 211 183 183 191 166 182 184 147 187 186 166 161 156 238 95 299 294 260 268 240 219 226 235 266 209 237 207 180 183 174 176 168 173 172
193 169 161 162 152 171 195 183 200 151 212 193 182 146 183 198 159 114 175 203 177 150 168 158 142 136 257 353 3 304 223 214 200 203 210 212 204 153 152 174 183 183 178 179 177